Location: Marcé
(47.5801°N, 0.3280°W)
Time: 17:50:02
(UTC+01:00)

Tiros 1 despin weight - Pass Details

Date: 01 December 2021
Orbit: 592 x 641 km, 48.2° (Epoch: 25 January)

Event Time Altitude Azimuth Distance (km) Brightness Sun altitude
Rises 20:37:49 0° 285° (WNW) 2,829 ? -33.9°
Reaches altitude 10° 20:40:15 10° 276° (W) 1,929 ? -34.3°
Enters shadow 20:41:49 19° 263° (W) 1,417 ? -34.6°
